RCH3312 ENOL-EGUN

Flight info

Callsign RCH3312
Flight time N/A
Altitude 28000
Route UVEPI DCT OSVIG M604 DANKO P850 OKMAM DCT SUTEB DCT RAVLO Y70 BODSO
Aircraft C17/H-SDE1E2FGHIJ5RTUWXY/LB1D1

Departure

Time 2026-04-19 03:27
Airport Ørland Airport (ENOL)

Arrival

Time N/A
Airport RAF Mildenhall (EGUN)
Time Latitude Longitude Altitude Speed Heading
2026-04-19 03:21 63.71116 9.59969 30 ft 0 kts 157°
2026-04-19 03:25 63.71121 9.59964 32 ft 1 kts 168°
2026-04-19 03:25 63.71141 9.59967 30 ft 2 kts 210°
2026-04-19 03:25 63.71135 9.59945 30 ft 5 kts 242°
2026-04-19 03:26 63.71107 9.59791 29 ft 16 kts 251°
2026-04-19 03:26 63.71066 9.59533 32 ft 20 kts 254°
2026-04-19 03:26 63.71038 9.59349 32 ft 7 kts 211°
2026-04-19 03:26 63.70969 9.59260 33 ft 12 kts 204°
2026-04-19 03:27 63.70879 9.59317 34 ft 17 kts 154°
2026-04-19 03:27 63.70525 9.59710 34 ft 105 kts 154°
2026-04-19 03:27 63.69684 9.60585 541 ft 136 kts 155°
2026-04-19 03:27 63.68828 9.61359 1828 ft 144 kts 158°
2026-04-19 03:28 63.67807 9.62605 2382 ft 193 kts 152°
2026-04-19 03:28 63.66419 9.63872 2861 ft 228 kts 175°
2026-04-19 03:28 63.64927 9.62844 3381 ft 234 kts 217°
2026-04-19 03:28 63.63957 9.59826 3920 ft 243 kts 236°
2026-04-19 03:29 63.62916 9.56855 4435 ft 241 kts 225°
2026-04-19 03:29 63.61731 9.54166 4971 ft 243 kts 221°
2026-04-19 03:29 63.60465 9.51616 5457 ft 246 kts 219°
2026-04-19 03:29 63.59157 9.49114 5977 ft 247 kts 218°
2026-04-19 03:30 63.57794 9.46723 6494 ft 250 kts 213°
2026-04-19 03:30 63.56346 9.44555 6988 ft 252 kts 211°
2026-04-19 03:30 63.54868 9.42414 7493 ft 254 kts 211°
2026-04-19 03:30 63.53396 9.40225 7995 ft 256 kts 212°
2026-04-19 03:31 63.51903 9.37968 8522 ft 260 kts 212°
2026-04-19 03:31 63.50397 9.35695 9060 ft 262 kts 211°
2026-04-19 03:31 63.48874 9.33420 9624 ft 264 kts 211°
2026-04-19 03:31 63.47335 9.31132 10148 ft 267 kts 211°
2026-04-19 03:32 63.45780 9.28811 10638 ft 270 kts 211°
2026-04-19 03:32 63.44207 9.26464 11145 ft 279 kts 211°
2026-04-19 03:32 63.42440 9.24152 11640 ft 311 kts 199°
2026-04-19 03:32 63.40225 9.22996 12177 ft 342 kts 187°
2026-04-19 03:33 63.37760 9.22376 12721 ft 371 kts 184°
2026-04-19 03:33 63.35091 9.21947 13255 ft 397 kts 182°
2026-04-19 03:33 63.32252 9.21588 13800 ft 421 kts 181°
2026-04-19 03:33 63.29268 9.21668 14299 ft 435 kts 176°
2026-04-19 03:34 63.26233 9.22001 14787 ft 439 kts 176°
2026-04-19 03:34 63.23172 9.22265 15273 ft 442 kts 177°
2026-04-19 03:34 63.20089 9.22531 15788 ft 445 kts 177°
2026-04-19 03:34 63.16983 9.22805 16301 ft 447 kts 177°
2026-04-19 03:35 63.13902 9.23078 16817 ft 450 kts 177°
2026-04-19 03:35 63.10760 9.23348 17356 ft 453 kts 177°
2026-04-19 03:35 63.07599 9.23625 17908 ft 456 kts 177°
2026-04-19 03:35 63.04388 9.23905 18457 ft 458 kts 177°
2026-04-19 03:36 63.01227 9.24176 18921 ft 461 kts 177°
2026-04-19 03:36 62.98011 9.24454 19408 ft 464 kts 177°
2026-04-19 03:36 62.94779 9.24734 19899 ft 466 kts 177°
2026-04-19 03:36 62.91526 9.25013 20410 ft 469 kts 177°
2026-04-19 03:37 62.88258 9.25295 20929 ft 472 kts 177°
2026-04-19 03:37 62.84966 9.25576 21450 ft 475 kts 177°
2026-04-19 03:37 62.81652 9.25857 21977 ft 478 kts 177°
2026-04-19 03:37 62.78318 9.26144 22524 ft 480 kts 177°
2026-04-19 03:38 62.74970 9.26429 23079 ft 483 kts 176°
2026-04-19 03:38 62.71604 9.26713 23655 ft 486 kts 176°
2026-04-19 03:38 62.68206 9.27001 24144 ft 491 kts 176°
2026-04-19 03:38 62.64779 9.27291 24634 ft 494 kts 176°
2026-04-19 03:39 62.61333 9.27582 25145 ft 497 kts 176°
2026-04-19 03:39 62.57878 9.27872 25656 ft 499 kts 176°
2026-04-19 03:39 62.54394 9.28164 26155 ft 502 kts 176°
2026-04-19 03:39 62.50902 9.28456 26692 ft 504 kts 176°
2026-04-19 03:40 62.47387 9.28749 27217 ft 506 kts 176°
2026-04-19 03:40 62.43863 9.29044 27725 ft 509 kts 176°
2026-04-19 03:40 62.40304 9.29339 27967 ft 516 kts 176°
2026-04-19 03:41 62.33054 9.29938 28104 ft 522 kts 176°
2026-04-19 03:41 62.25839 9.30533 28134 ft 516 kts 176°
2026-04-19 03:42 62.18657 9.31123 28145 ft 517 kts 176°
2026-04-19 03:42 62.11460 9.31710 28143 ft 517 kts 176°
2026-04-19 03:43 62.04280 9.32293 28151 ft 517 kts 176°
2026-04-19 03:43 61.97083 9.32876 28147 ft 517 kts 176°
2026-04-19 03:44 61.89894 9.33454 28146 ft 517 kts 176°
2026-04-19 03:44 61.82719 9.34028 28147 ft 516 kts 176°
2026-04-19 03:45 61.75533 9.34601 28147 ft 516 kts 176°
2026-04-19 03:45 61.68406 9.35165 28144 ft 515 kts 176°
2026-04-19 03:46 61.61245 9.35731 28153 ft 515 kts 176°
2026-04-19 03:46 61.54079 9.36294 28148 ft 515 kts 176°
2026-04-19 03:47 61.46926 9.36855 28150 ft 514 kts 176°
2026-04-19 03:47 61.39772 9.37412 28134 ft 514 kts 176°
2026-04-19 03:48 61.32632 9.37964 28133 ft 513 kts 176°
2026-04-19 03:48 61.25493 9.38515 28139 ft 513 kts 176°
2026-04-19 03:49 61.18358 9.39064 28133 ft 513 kts 176°
2026-04-19 03:49 61.11227 9.39602 28122 ft 513 kts 177°
2026-04-19 03:50 61.05307 9.38454 28129 ft 516 kts 186°
2026-04-19 03:50 60.98322 9.34919 28115 ft 518 kts 192°
2026-04-19 03:51 60.91353 9.31145 28114 ft 517 kts 192°
2026-04-19 03:51 60.84400 9.27393 28107 ft 516 kts 192°
2026-04-19 03:52 60.77455 9.23659 28113 ft 516 kts 192°
2026-04-19 03:52 60.70504 9.19938 28111 ft 516 kts 192°
2026-04-19 03:53 60.63566 9.16244 28112 ft 515 kts 192°
2026-04-19 03:53 60.56635 9.12570 28115 ft 515 kts 192°
2026-04-19 03:54 60.49698 9.08908 28114 ft 515 kts 192°
2026-04-19 03:54 60.42762 9.05262 28115 ft 515 kts 192°
2026-04-19 03:55 60.35821 9.01630 28106 ft 515 kts 192°
2026-04-19 03:55 60.28883 8.98015 28092 ft 515 kts 192°
2026-04-19 03:56 60.21949 8.94418 28109 ft 514 kts 192°
2026-04-19 03:56 60.15013 8.90834 28094 ft 515 kts 192°
2026-04-19 03:57 60.08080 8.87269 28093 ft 514 kts 192°
2026-04-19 03:57 60.01145 8.83719 28085 ft 514 kts 191°
2026-04-19 03:58 59.94219 8.80189 28097 ft 514 kts 192°
2026-04-19 03:58 59.87291 8.76670 28088 ft 514 kts 191°
2026-04-19 03:59 59.80369 8.73175 28086 ft 513 kts 191°
2026-04-19 03:59 59.73444 8.69690 28087 ft 513 kts 192°
2026-04-19 04:00 59.66525 8.66222 28088 ft 512 kts 191°
2026-04-19 04:00 59.59615 8.62775 28094 ft 512 kts 192°
2026-04-19 04:01 59.52705 8.59342 28081 ft 512 kts 192°
2026-04-19 04:01 59.42340 8.54218 28086 ft 512 kts 192°
2026-04-19 04:02 59.35442 8.50826 28083 ft 510 kts 192°
2026-04-19 04:02 59.28551 8.47454 28087 ft 511 kts 192°
2026-04-19 04:03 59.21641 8.44084 28097 ft 511 kts 192°
2026-04-19 04:03 59.14748 8.40742 28105 ft 510 kts 192°
2026-04-19 04:04 59.07878 8.37415 28097 ft 512 kts 192°
2026-04-19 04:04 59.00967 8.34089 28094 ft 511 kts 192°
2026-04-19 04:05 58.94059 8.30776 28092 ft 512 kts 192°
2026-04-19 04:05 58.87140 8.27473 28089 ft 512 kts 192°
2026-04-19 04:06 58.80216 8.24179 28090 ft 512 kts 192°
2026-04-19 04:06 58.73304 8.20907 28086 ft 512 kts 192°
2026-04-19 04:07 58.66390 8.17645 28087 ft 511 kts 192°
2026-04-19 04:07 58.59478 8.14400 28080 ft 511 kts 192°
2026-04-19 04:08 58.52577 8.11170 28081 ft 510 kts 192°
2026-04-19 04:08 58.45670 8.07953 28075 ft 510 kts 193°
2026-04-19 04:09 58.38775 8.04751 28074 ft 510 kts 193°
2026-04-19 04:09 58.31871 8.01563 28077 ft 510 kts 193°
2026-04-19 04:10 58.24977 7.98387 28078 ft 510 kts 193°
2026-04-19 04:10 58.18076 7.95225 28074 ft 510 kts 193°
2026-04-19 04:11 58.11192 7.91992 28079 ft 510 kts 197°
2026-04-19 04:11 58.04694 7.86549 28074 ft 512 kts 210°
2026-04-19 04:12 57.98622 7.79519 28074 ft 512 kts 210°
2026-04-19 04:12 57.92545 7.72540 28074 ft 512 kts 211°
2026-04-19 04:13 57.86501 7.65638 28079 ft 511 kts 211°
2026-04-19 04:13 57.80422 7.58726 28075 ft 512 kts 211°
2026-04-19 04:14 57.74332 7.51827 28082 ft 511 kts 211°
2026-04-19 04:14 57.68246 7.44960 28080 ft 511 kts 211°
2026-04-19 04:15 57.62162 7.38124 28088 ft 510 kts 211°
2026-04-19 04:15 57.56078 7.31314 28087 ft 510 kts 211°
2026-04-19 04:16 57.49988 7.24523 28089 ft 511 kts 211°
2026-04-19 04:16 57.43889 7.17750 28090 ft 510 kts 211°
2026-04-19 04:17 57.37798 7.11012 28096 ft 510 kts 211°
2026-04-19 04:17 57.31685 7.04277 28090 ft 511 kts 211°
2026-04-19 04:18 57.25584 6.97582 28099 ft 510 kts 211°
2026-04-19 04:18 57.19469 6.90895 28092 ft 511 kts 211°
2026-04-19 04:19 57.13356 6.84237 28101 ft 510 kts 211°
2026-04-19 04:19 57.07281 6.77649 28096 ft 510 kts 211°
2026-04-19 04:20 57.01185 6.70966 28101 ft 510 kts 212°
2026-04-19 04:20 56.94894 6.64926 28100 ft 511 kts 209°
2026-04-19 04:21 56.88520 6.59185 28105 ft 512 kts 204°
2026-04-19 04:21 56.81807 6.54801 28101 ft 512 kts 201°
2026-04-19 04:22 56.75091 6.50433 28104 ft 512 kts 201°
2026-04-19 04:22 56.68379 6.46075 28109 ft 512 kts 201°
2026-04-19 04:23 56.61671 6.41737 28114 ft 512 kts 201°
2026-04-19 04:23 56.54954 6.37411 28104 ft 512 kts 201°
2026-04-19 04:24 56.48241 6.33100 28112 ft 512 kts 201°
2026-04-19 04:24 56.41519 6.28803 28110 ft 512 kts 201°
2026-04-19 04:25 56.34803 6.24523 28122 ft 512 kts 201°
2026-04-19 04:25 56.28084 6.20259 28117 ft 512 kts 201°
2026-04-19 04:26 56.21368 6.16013 28120 ft 512 kts 201°
2026-04-19 04:26 56.14650 6.11780 28313 ft 515 kts 201°
2026-04-19 04:27 56.11275 6.09659 28202 ft 526 kts 201°
2026-04-19 04:27 56.07808 6.07487 28157 ft 525 kts 201°
2026-04-19 04:27 56.00943 6.03194 28136 ft 522 kts 201°
2026-04-19 04:28 55.94079 5.98918 28138 ft 523 kts 201°
2026-04-19 04:28 55.87205 5.94652 28137 ft 523 kts 201°
2026-04-19 04:29 55.80335 5.90406 28139 ft 523 kts 200°
2026-04-19 04:29 55.73449 5.86164 28141 ft 524 kts 200°
2026-04-19 04:30 55.67681 5.82623 28142 ft 524 kts 200°
2026-04-19 04:30 55.59625 5.77697 28148 ft 525 kts 200°
2026-04-19 04:31 55.52762 5.73516 28154 ft 525 kts 200°
2026-04-19 04:31 55.45860 5.69329 28156 ft 525 kts 200°
2026-04-19 04:32 55.38952 5.65152 28159 ft 525 kts 200°
2026-04-19 04:32 55.32035 5.60986 28160 ft 525 kts 200°
2026-04-19 04:33 55.25120 5.56836 28162 ft 525 kts 200°
2026-04-19 04:33 55.18203 5.52701 28164 ft 526 kts 200°
2026-04-19 04:34 55.11274 5.48573 28167 ft 526 kts 200°
2026-04-19 04:34 55.04360 5.44469 28170 ft 525 kts 200°
2026-04-19 04:35 54.97727 5.39219 28170 ft 524 kts 211°
2026-04-19 04:35 54.91644 5.32243 28172 ft 524 kts 214°
2026-04-19 04:36 54.86600 5.26433 28178 ft 524 kts 214°
2026-04-19 04:36 54.79486 5.18277 28179 ft 524 kts 214°
2026-04-19 04:37 54.73393 5.11318 28182 ft 525 kts 214°
2026-04-19 04:37 54.68326 5.05553 28182 ft 525 kts 214°
2026-04-19 04:38 54.62227 4.98635 28186 ft 525 kts 214°
2026-04-19 04:38 54.56099 4.91709 28186 ft 526 kts 214°
2026-04-19 04:39 54.49975 4.84813 28191 ft 526 kts 214°
2026-04-19 04:39 54.43835 4.77925 27980 ft 528 kts 214°
2026-04-19 04:40 54.40771 4.74498 27804 ft 524 kts 214°
2026-04-19 04:40 54.37728 4.71099 27652 ft 522 kts 214°
2026-04-19 04:40 54.34678 4.67699 27481 ft 522 kts 214°
2026-04-19 04:40 54.31631 4.64308 27329 ft 521 kts 214°
2026-04-19 04:41 54.28598 4.60939 27169 ft 520 kts 214°
2026-04-19 04:41 54.25598 4.57612 27011 ft 519 kts 214°
2026-04-19 04:41 54.22532 4.54219 26850 ft 518 kts 214°
2026-04-19 04:41 54.19545 4.50918 26683 ft 517 kts 214°
2026-04-19 04:42 54.16531 4.47593 26543 ft 516 kts 214°
2026-04-19 04:42 54.13510 4.44266 26385 ft 516 kts 214°
2026-04-19 04:42 54.10498 4.40958 26228 ft 515 kts 214°
2026-04-19 04:42 54.07484 4.37650 26079 ft 514 kts 214°
2026-04-19 04:43 54.04477 4.34356 25923 ft 514 kts 214°
2026-04-19 04:43 54.01474 4.31073 25769 ft 513 kts 214°
2026-04-19 04:43 53.98489 4.27814 25608 ft 512 kts 214°
2026-04-19 04:43 53.95481 4.24537 25468 ft 511 kts 214°
2026-04-19 04:44 53.92483 4.21276 25319 ft 510 kts 214°
2026-04-19 04:44 53.89501 4.18039 25173 ft 510 kts 214°
2026-04-19 04:44 53.86517 4.14803 25023 ft 509 kts 214°
2026-04-19 04:44 53.83537 4.11580 24874 ft 508 kts 214°
2026-04-19 04:45 53.80553 4.08357 24725 ft 507 kts 214°
2026-04-19 04:45 53.77584 4.05154 24566 ft 506 kts 214°
2026-04-19 04:45 53.74618 4.01961 24435 ft 505 kts 214°
2026-04-19 04:45 53.71653 3.98776 24286 ft 504 kts 214°
2026-04-19 04:46 53.68697 3.95604 24142 ft 504 kts 214°
2026-04-19 04:46 53.65743 3.92437 23996 ft 503 kts 214°
2026-04-19 04:46 53.62789 3.89281 23857 ft 502 kts 214°
2026-04-19 04:46 53.59837 3.86130 23694 ft 501 kts 214°
2026-04-19 04:47 53.56891 3.82990 23507 ft 501 kts 214°
2026-04-19 04:47 53.53956 3.79866 23344 ft 500 kts 214°
2026-04-19 04:47 53.51018 3.76748 23165 ft 498 kts 214°
2026-04-19 04:47 53.48090 3.73641 22999 ft 497 kts 214°
2026-04-19 04:48 53.45170 3.70551 22830 ft 496 kts 214°
2026-04-19 04:48 53.42249 3.67464 22662 ft 496 kts 214°
2026-04-19 04:48 53.39334 3.64387 22492 ft 495 kts 214°
2026-04-19 04:48 53.36462 3.61362 22324 ft 493 kts 214°
2026-04-19 04:49 53.33525 3.58273 22264 ft 491 kts 214°
2026-04-19 04:49 53.30637 3.55239 22237 ft 492 kts 214°
2026-04-19 04:49 53.27767 3.52232 22220 ft 493 kts 214°
2026-04-19 04:49 53.24821 3.49148 22218 ft 493 kts 214°
2026-04-19 04:50 53.21949 3.46147 22219 ft 493 kts 214°
2026-04-19 04:50 53.19044 3.43118 22222 ft 493 kts 214°
2026-04-19 04:50 53.16136 3.40087 22222 ft 493 kts 214°
2026-04-19 04:50 53.13957 3.37821 22225 ft 493 kts 214°
2026-04-19 05:25 53.13947 3.37811 22223 ft 493 kts 214°
2026-04-19 05:25 53.11180 3.34936 22079 ft 497 kts 214°
2026-04-19 05:25 53.09235 3.32918 21717 ft 497 kts 214°
2026-04-19 05:25 53.06358 3.29946 21172 ft 467 kts 214°
2026-04-19 05:26 53.02866 3.26334 20471 ft 420 kts 215°
2026-04-19 05:26 53.01261 3.24674 20127 ft 401 kts 215°
2026-04-19 05:26 52.98966 3.22303 19617 ft 377 kts 216°
2026-04-19 05:26 52.96800 3.20071 19115 ft 357 kts 216°
2026-04-19 05:27 52.94767 3.17910 18678 ft 336 kts 222°
2026-04-19 05:27 52.93407 3.14998 18290 ft 312 kts 252°
2026-04-19 05:27 52.93051 3.11549 17893 ft 301 kts 271°
2026-04-19 05:27 52.93100 3.08109 17532 ft 295 kts 277°
2026-04-19 05:28 52.93286 3.04754 17418 ft 292 kts 278°
2026-04-19 05:28 52.93523 3.01391 17280 ft 295 kts 279°
2026-04-19 05:28 52.93885 2.98065 17145 ft 293 kts 284°
2026-04-19 05:28 52.94343 2.94770 17022 ft 292 kts 285°
2026-04-19 05:29 52.94795 2.91487 16873 ft 292 kts 284°
2026-04-19 05:29 52.95221 2.88204 16748 ft 292 kts 284°
2026-04-19 05:29 52.95644 2.84908 16614 ft 291 kts 284°
2026-04-19 05:29 52.96069 2.81632 16482 ft 291 kts 284°
2026-04-19 05:30 52.96497 2.78359 16348 ft 290 kts 284°
2026-04-19 05:30 52.96917 2.75136 16218 ft 290 kts 284°
2026-04-19 05:30 52.97339 2.71866 16090 ft 289 kts 284°
2026-04-19 05:30 52.97760 2.68605 15959 ft 289 kts 284°
2026-04-19 05:31 52.98179 2.65354 15829 ft 288 kts 284°
2026-04-19 05:31 52.98597 2.62102 15690 ft 287 kts 284°
2026-04-19 05:31 52.99012 2.58869 15573 ft 287 kts 284°
2026-04-19 05:31 52.99426 2.55635 15463 ft 286 kts 284°
2026-04-19 05:32 52.99838 2.52399 15366 ft 286 kts 284°
2026-04-19 05:32 53.00250 2.49165 15259 ft 286 kts 284°
2026-04-19 05:32 53.00657 2.45969 15161 ft 285 kts 284°
2026-04-19 05:32 53.01068 2.42720 15057 ft 285 kts 283°
2026-04-19 05:33 53.01477 2.39494 14959 ft 285 kts 283°
2026-04-19 05:33 53.01882 2.36284 14862 ft 285 kts 283°
2026-04-19 05:33 53.02287 2.33060 14760 ft 284 kts 283°
2026-04-19 05:33 53.02689 2.29856 14653 ft 284 kts 283°
2026-04-19 05:34 53.03091 2.26648 14561 ft 284 kts 283°
2026-04-19 05:34 53.03492 2.23448 14470 ft 283 kts 283°
2026-04-19 05:34 53.03892 2.20238 14295 ft 284 kts 283°
2026-04-19 05:34 53.04292 2.17025 14052 ft 283 kts 283°
2026-04-19 05:35 53.04599 2.13809 13786 ft 283 kts 271°
2026-04-19 05:35 53.03973 2.10726 13510 ft 290 kts 238°
2026-04-19 05:35 53.02583 2.08242 13247 ft 295 kts 228°
2026-04-19 05:35 53.01114 2.05862 12982 ft 294 kts 228°
2026-04-19 05:36 52.99671 2.03473 12705 ft 291 kts 229°
2026-04-19 05:36 52.98746 2.01871 12533 ft 290 kts 230°
2026-04-19 05:36 52.97375 1.99429 12264 ft 289 kts 231°
2026-04-19 05:36 52.96477 1.97807 12095 ft 288 kts 231°